Tributaries of Elbe river

river Ploučnice - water gauge Benešov nad Ploučnicí

Date and time (UTC) H (cm) Q (m³/s)
8. 2. 2023 18:30 87 6.4
8. 2. 2023 18:00 86 6
8. 2. 2023 17:00 87 6
8. 2. 2023 16:00 88 7
8. 2. 2023 15:00 86 6
8. 2. 2023 14:00 87 6
8. 2. 2023 13:00 87 6
8. 2. 2023 12:00 87 6
8. 2. 2023 11:00 87 6
8. 2. 2023 10:00 87 6
8. 2. 2023 09:00 88 7
8. 2. 2023 08:00 88 7
8. 2. 2023 07:00 88 7
8. 2. 2023 06:00 88 7

H - water level, Q - discharge

river Ohře - water gauge Louny

Date and time (UTC) H (cm) Q (m³/s)
8. 2. 2023 18:30 217 32.9
8. 2. 2023 18:00 217 33
8. 2. 2023 17:00 217 33
8. 2. 2023 16:00 217 33
8. 2. 2023 15:00 217 33
8. 2. 2023 14:00 217 33
8. 2. 2023 13:00 217 33
8. 2. 2023 12:00 217 33
8. 2. 2023 11:00 218 34
8. 2. 2023 10:00 218 34
8. 2. 2023 09:00 219 34
8. 2. 2023 08:00 219 34
8. 2. 2023 07:00 218 34
8. 2. 2023 06:00 218 34

H - water level, Q - discharge

Vraňany

Date and time (UTC) H (cm) Q (m³/s)
8. 2. 2023 18:30 119 174
8. 2. 2023 18:00 125 183
8. 2. 2023 17:00 132 194
8. 2. 2023 16:00 128 188
8. 2. 2023 15:00 120 176
8. 2. 2023 14:00 107 157
8. 2. 2023 13:00 101 149
8. 2. 2023 12:00 106 156
8. 2. 2023 11:00 118 173
8. 2. 2023 10:00 126 185
8. 2. 2023 09:00 119 174
8. 2. 2023 08:00 122 179
8. 2. 2023 07:00 128 188
8. 2. 2023 06:00 129 189

H - water level, Q - discharge

river Jizera - water gauge Předměřice

Date and time (UTC) H (cm) Q (m³/s)
8. 2. 2023 18:30 147 14.8
8. 2. 2023 18:00 142 13
8. 2. 2023 17:00 142 13
8. 2. 2023 16:00 149 15
8. 2. 2023 15:00 147 15
8. 2. 2023 14:00 145 14
8. 2. 2023 13:00 146 15
8. 2. 2023 12:00 148 15
8. 2. 2023 11:00 154 17
8. 2. 2023 10:00 152 16
8. 2. 2023 09:00 143 14
8. 2. 2023 08:00 145 14
8. 2. 2023 07:00 155 17
8. 2. 2023 06:00 156 18

H - water level, Q - discharge

river Cidlina - water gauge Sány

Date and time (UTC) H (cm) Q (m³/s)
8. 2. 2023 18:30 75 7
8. 2. 2023 18:00 75 7
8. 2. 2023 17:00 75 7
8. 2. 2023 16:00 75 7
8. 2. 2023 15:00 75 7
8. 2. 2023 14:00 75 7
8. 2. 2023 13:00 74 7
8. 2. 2023 12:00 74 7
8. 2. 2023 11:00 74 7
8. 2. 2023 10:00 75 7
8. 2. 2023 09:00 75 7
8. 2. 2023 08:00 75 7
8. 2. 2023 07:00 75 7
8. 2. 2023 06:00 76 7

H - water level, Q - discharge

river Orlice - water gauge Týniště nad Orlicí

Date and time (UTC) H (cm) Q (m³/s)
8. 2. 2023 18:20 118 17.5
8. 2. 2023 18:00 118 18
8. 2. 2023 17:00 120 18
8. 2. 2023 16:00 121 18
8. 2. 2023 15:00 124 19
8. 2. 2023 14:00 124 19
8. 2. 2023 13:00 124 19
8. 2. 2023 12:00 122 18
8. 2. 2023 11:00 120 18
8. 2. 2023 10:00 120 18
8. 2. 2023 09:00 121 18
8. 2. 2023 08:00 122 18
8. 2. 2023 07:00 124 19
8. 2. 2023 06:00 124 19

H - water level, Q - discharge
Source data
Labe Basin Vltava Basin Povodí Moravy ČHMÚ